Weather History for Chino, CA

Change the Weather History Date:

Sunday, September 1, 2013

  Actual Average Record
Temperature  
Mean Temperature 84 °F -  
Max Temperature 96 °F 90 °F 109 °F (2002)
Min Temperature 73 °F 57 °F 53 °F (2005)
Cooling Degree Days 20    
Growing Degree Days 34 (Base 50)    
Moisture  
Dew Point 66 °F    
Average Humidity 60    
Maximum Humidity 76    
Minimum Humidity 35    
Precipitation  
Precipitation 0.00 in - - ()
Sea Level Pressure  
Sea Level Pressure 29.89 in    
Wind  
Wind Speed 5 mph (West)    
Max Wind Speed 16 mph    
Max Gust Speed 22 mph    
Visibility 10 miles    
Events      
Averages and records for this station are not official NWS values.
T = Trace of Precipitation, MM = Missing Value Source: NWS Daily Summary

Daily Weather History Graph

Daily Weather History Graph

Search for Another Location

Airport:

Trip Planner

Search our weather history database for the weather conditions in past years. The results will help you decide how hot, cold, wet, or windy it might be!

Date:

Astronomy

Sep. 01, 2013 Rise Set
Actual Time 6:24 AM PDT 7:15 PM PDT
Civil Twilight 5:58 AM PDT 7:41 PM PDT
Nautical Twilight 5:28 AM PDT 8:11 PM PDT
Astronomical Twilight 4:57 AM PDT 8:42 PM PDT
Moon 2:56 AM PDT 4:50 PM PDT
Length of Visible Light 13h 42m
Length of Day
12h 51m
Waning Crescent, 13% of the Moon is Illuminated
Sep 1
Waning Crescent
Sep 5
New
Sep 12
First Quarter
Sep 19
Full
Sep 26
Last Quarter

Hourly Weather History & Observations

Time (PDT) Temp. Heat Index Dew Point Humidity Pressure Visibility Wind Dir Wind Speed Gust Speed Precip Events Conditions
12:53 AM 77.0 °F - 66.9 °F 71% 29.92 in 10.0 mi Calm Calm - N/A   Clear
1:53 AM 75.0 °F - 66.0 °F 73% 29.92 in 10.0 mi SW 4.6 mph - N/A   Clear
2:53 AM 73.9 °F - 66.0 °F 76% 29.91 in 10.0 mi Calm Calm - N/A   Clear
3:53 AM 73.9 °F - 64.9 °F 73% 29.91 in 10.0 mi West 4.6 mph - N/A   Clear
4:53 AM 73.9 °F - 64.9 °F 73% 29.91 in 10.0 mi WNW 5.8 mph - N/A   Clear
5:53 AM 73.0 °F - 64.9 °F 76% 29.91 in 10.0 mi West 3.5 mph - N/A   Clear
6:53 AM 73.0 °F - 64.9 °F 76% 29.93 in 10.0 mi Calm Calm - N/A   Mostly Cloudy
7:53 AM 77.0 °F - 66.9 °F 71% 29.93 in 10.0 mi Calm Calm - N/A   Mostly Cloudy
8:53 AM 79.0 °F - 66.9 °F 66% 29.93 in 10.0 mi SSW 3.5 mph - N/A   Mostly Cloudy
9:53 AM 82.9 °F 85.4 °F 66.9 °F 58% 29.93 in 10.0 mi Variable 3.5 mph - N/A   Scattered Clouds
10:53 AM 87.1 °F 89.9 °F 66.9 °F 51% 29.92 in 10.0 mi West 5.8 mph - N/A   Scattered Clouds
11:53 AM 89.1 °F 91.3 °F 66.0 °F 46% 29.90 in 10.0 mi Variable 4.6 mph - N/A   Scattered Clouds
12:53 PM 95.0 °F 97.9 °F 66.0 °F 38% 29.88 in 10.0 mi West 12.7 mph 16.1 mph N/A   Scattered Clouds
1:53 PM 96.1 °F 98.3 °F 64.0 °F 35% 29.87 in 10.0 mi WSW 11.5 mph 18.4 mph N/A   Scattered Clouds
2:53 PM 95.0 °F 97.4 °F 64.9 °F 37% 29.85 in 10.0 mi West 15.0 mph 20.7 mph N/A   Scattered Clouds
3:53 PM 91.0 °F 93.0 °F 64.9 °F 42% 29.84 in 10.0 mi West 13.8 mph 21.9 mph N/A   Scattered Clouds
4:53 PM 91.9 °F 93.3 °F 64.0 °F 39% 29.83 in 10.0 mi West 16.1 mph - N/A   Mostly Cloudy
5:53 PM 89.1 °F 91.0 °F 64.9 °F 45% 29.83 in 10.0 mi WSW 16.1 mph - N/A   Mostly Cloudy
6:53 PM 82.9 °F 85.0 °F 66.0 °F 56% 29.85 in 10.0 mi WSW 12.7 mph - N/A   Mostly Cloudy
7:53 PM 80.1 °F 82.1 °F 66.0 °F 62% 29.87 in 10.0 mi West 10.4 mph - N/A   Mostly Cloudy
8:53 PM 78.1 °F - 66.0 °F 66% 29.89 in 10.0 mi West 6.9 mph - N/A   Clear
9:53 PM 77.0 °F - 64.9 °F 66% 29.90 in 10.0 mi NW 5.8 mph - N/A   Clear
10:53 PM 75.0 °F - 64.0 °F 69% 29.91 in 10.0 mi West 5.8 mph - N/A   Clear
11:53 PM 73.9 °F - 64.9 °F 73% 29.90 in 10.0 mi SW 3.5 mph - N/A   Clear